Location: Amanico Ergina Village
(37.7824°N, 122.4366°W)
Time: 08:23:36
(UTC+00:00)

Cosmos 1726 Rocket - Pass Details

Date: 29 October 2020
Orbit: 603 x 629 km, 82.5° (Epoch: 03 December)

Event Time Altitude Azimuth Distance (km) Brightness Sun altitude
Rises 12:57:08 0° 351° (N) 2,922 6.9 -19.4°
Reaches altitude 10° 12:59:22 10° 350° (N) 2,012 6.1 -18.9°
Maximum altitude 13:03:50 79° 264° (W) 644 3.4 -18.1°
Drops below altitude 10° 13:08:16 10° 178° (S) 1,998 6.2 -17.2°
Sets 13:10:29 0° 177° (S) 2,899 7.1 -16.8°
